Theta_e
313 313 313 314 313 313 311 312 316 316 315 315 313 313 313 314 313 313 315 312 308 312 314 313 313 314 315 315 313 311 310 310 310 311 312 313 314 314 314 314 314 315 315 315 315 315 315 315 315 315 315 316 316 315 316 315 315 315 316 317 317 317 317 318 318 318 319 319 319 319 319 318 318 319 319 318 318 318 318 319 320 320 320 320 321 322
313 315 314 314 314 313 312 312 313 313 313 313 314 313 313 314 314 313 313 312 309 311 316 314 313 313 313 314 313 310 309 309 309 310 311 313 314 314 313 314 314 315 315 315 315 315 315 315 315 315 315 315 315 315 315 314 314 314 314 314 315 315 317 318 317 318 318 318 318 318 317 317 318 318 317 317 317 317 318 319 319 318 319 319 320 321
313 315 315 313 312 314 313 312 312 312 312 313 314 314 314 314 314 313 313 313 311 311 316 316 313 314 313 312 311 309 309 310 311 311 312 314 313 313 314 314 315 314 315 315 315 315 315 315 315 314 315 314 315 314 314 314 314 313 313 313 314 314 316 316 316 316 316 316 317 317 318 319 320 319 318 318 318 318 318 319 319 319 319 319 320 321
315 315 313 311 311 314 314 311 312 312 312 313 314 315 315 314 313 313 312 312 312 311 314 314 313 314 313 312 312 310 309 311 312 312 313 313 313 313 314 314 315 314 315 315 315 316 315 315 315 314 314 314 314 314 314 314 314 313 312 312 313 313 314 315 315 315 315 316 317 319 321 322 323 323 321 321 320 319 319 319 319 319 319 319 320 320
316 313 311 310 312 315 313 310 311 312 312 313 313 314 315 315 313 313 313 312 313 312 311 312 314 314 314 314 314 312 309 308 311 311 311 312 313 313 313 313 314 314 315 315 315 315 315 315 315 314 314 314 314 314 314 313 313 313 312 312 312 313 313 313 314 314 315 317 318 321 324 326 326 325 323 321 319 317 317 317 318 318 319 320 320 321
315 311 310 310 311 315 314 312 312 313 313 313 313 313 315 317 315 313 314 313 313 315 313 313 314 317 321 320 314 313 311 309 309 308 308 312 313 312 312 313 314 315 315 315 315 315 315 315 315 315 314 314 314 314 314 314 313 313 312 312 312 312 312 313 313 314 315 317 318 321 323 324 324 322 319 317 315 315 315 316 316 318 319 320 321 321
314 311 310 312 312 315 316 314 313 313 312 313 313 313 313 314 314 314 316 314 315 318 314 312 312 318 324 320 315 316 314 313 311 307 307 310 311 311 312 314 315 315 315 315 315 315 315 315 315 314 314 314 314 314 314 314 314 313 313 313 312 312 312 312 313 313 314 316 317 319 319 320 320 319 316 315 315 315 315 316 316 317 318 319 320 321
312 310 310 312 312 314 315 314 314 313 313 314 314 315 314 312 313 315 316 316 317 317 315 313 312 314 316 315 317 318 315 316 314 312 309 308 310 312 313 315 315 315 316 315 315 315 315 315 315 315 315 314 314 314 314 314 314 314 313 313 313 313 312 312 312 313 313 314 316 317 318 318 318 318 317 317 317 318 318 318 318 318 317 318 319 319
309 311 311 312 312 312 313 314 314 312 314 315 313 316 315 313 314 315 315 316 316 315 315 315 312 312 315 318 320 317 314 315 315 316 313 308 311 313 313 315 315 314 315 315 315 315 315 315 315 315 314 314 314 314 314 314 314 314 313 314 313 314 313 313 313 313 313 314 314 315 316 317 317 318 319 320 321 321 321 321 320 319 319 318 318 318
308 310 310 310 312 312 312 314 314 313 314 311 311 316 318 318 318 315 315 315 314 313 315 317 314 312 317 320 318 313 313 314 314 317 314 308 311 314 314 314 314 315 314 314 314 314 314 314 314 314 314 314 315 314 314 314 314 314 314 314 314 314 314 314 314 313 313 313 314 315 315 316 317 318 320 322 323 323 323 323 321 320 319 319 319 319
309 308 308 310 311 310 311 311 309 311 312 309 313 318 317 320 321 317 320 318 313 314 314 316 316 312 315 318 315 314 316 317 315 316 314 310 310 312 313 313 313 314 314 314 314 314 314 315 314 314 314 314 314 314 315 314 314 314 314 314 314 314 314 314 314 314 314 314 314 314 315 315 316 317 319 321 322 323 323 323 321 320 320 320 320 320
309 308 308 308 308 309 310 310 308 309 309 310 317 318 315 319 318 317 322 317 312 315 313 313 315 312 314 315 313 314 317 318 315 315 317 313 310 311 312 313 313 313 314 313 314 314 315 315 314 314 314 313 314 313 314 314 314 314 314 314 314 314 314 314 314 314 315 315 315 315 315 316 316 317 318 319 320 321 321 322 322 322 322 322 322 322
311 312 310 308 308 309 311 313 312 311 311 312 316 315 313 317 315 314 318 315 315 316 311 311 313 312 313 315 314 315 316 314 310 310 313 311 309 311 312 313 313 314 314 314 314 314 315 315 314 314 314 314 314 314 314 314 314 314 314 314 314 314 314 314 314 314 314 315 315 315 315 315 316 317 318 319 320 321 321 322 323 323 323 324 324 324
315 315 312 310 310 309 310 313 312 312 312 312 312 312 313 315 314 313 315 315 317 317 311 310 311 313 316 316 316 318 315 313 309 307 309 309 309 311 312 313 313 313 314 314 314 314 314 315 315 314 313 313 314 314 314 314 314 314 314 314 314 314 314 314 314 314 314 314 314 315 316 316 317 318 319 320 321 322 323 324 324 324 324 325 325 326
317 316 313 312 311 310 310 311 314 315 313 311 313 314 313 315 316 316 315 317 318 316 312 309 312 318 320 316 314 312 310 311 310 309 310 310 310 311 311 312 312 313 314 314 314 314 314 315 314 314 314 313 314 314 314 314 314 314 314 314 314 314 314 314 314 314 314 314 314 315 316 317 318 320 321 322 323 323 324 325 325 326 326 327 327 327
317 316 312 309 308 309 309 309 313 315 313 312 315 315 313 317 323 319 314 317 319 317 313 311 315 320 319 315 311 308 308 310 308 309 311 310 312 311 310 312 312 313 313 313 314 314 314 314 314 315 314 314 314 314 314 314 314 314 314 314 314 314 314 314 314 314 314 314 314 315 316 317 318 320 321 323 323 324 325 325 326 327 328 328 328 328
316 314 311 309 308 308 309 309 310 312 314 313 313 313 312 316 324 320 312 311 313 315 315 313 315 318 316 314 313 311 312 312 310 308 308 309 311 311 310 312 313 313 313 313 313 314 314 314 314 314 314 314 314 314 314 315 314 315 315 315 315 315 315 315 314 314 314 314 315 315 316 317 318 320 321 322 323 324 325 326 327 328 328 328 327 327
315 313 310 311 312 308 306 309 309 309 312 314 313 313 311 313 319 320 316 312 311 314 317 316 314 315 316 315 316 315 313 314 315 312 306 306 309 309 311 313 313 313 313 313 313 314 314 314 313 313 314 313 314 313 313 314 313 314 314 314 315 315 316 316 315 315 315 315 315 315 316 317 318 320 320 321 322 324 325 327 327 327 326 326 326 326
315 314 310 310 313 309 306 310 311 309 308 311 312 313 314 315 315 315 316 315 313 313 317 319 314 313 315 316 316 315 314 315 315 313 310 308 307 308 312 314 313 313 313 313 313 314 313 313 312 312 314 314 314 313 313 313 313 313 313 313 313 313 314 315 316 316 316 315 316 316 317 318 318 319 319 320 321 322 324 325 325 325 324 325 326 326
313 318 315 310 311 311 310 311 313 312 309 309 310 310 313 316 315 315 315 314 316 315 316 319 316 313 314 316 317 316 317 318 313 313 316 311 307 310 313 313 313 313 312 313 313 314 313 312 311 312 314 314 314 314 314 314 313 313 312 312 312 312 312 313 315 315 316 316 316 316 317 317 317 316 316 317 318 320 321 322 323 324 324 326 327 324
311 316 317 311 309 311 313 312 312 313 311 311 312 311 311 311 314 317 314 313 317 318 317 317 314 316 319 317 315 314 315 316 314 315 316 310 307 311 312 312 313 313 312 313 313 313 313 311 311 312 314 315 315 315 315 315 314 314 312 311 311 311 311 311 312 313 313 314 314 315 315 315 314 314 314 315 317 319 321 321 322 323 324 325 325 323
311 314 315 313 311 312 314 312 311 313 313 312 312 312 312 312 315 316 313 313 316 316 319 317 311 317 322 314 311 314 315 313 313 312 310 309 309 311 311 311 312 313 312 313 313 314 313 312 311 312 314 315 315 315 315 315 315 314 313 313 312 311 310 310 310 311 311 312 313 313 313 313 313 313 313 315 317 319 320 321 322 322 322 323 323 323
313 315 314 313 313 314 312 308 305 309 314 315 313 312 312 313 315 314 313 314 314 312 315 315 311 314 318 314 311 312 312 309 308 307 306 308 310 311 310 310 312 313 312 313 313 313 313 313 312 312 314 315 315 315 315 314 315 315 314 314 313 312 312 311 310 310 310 311 311 311 311 311 311 311 312 314 316 317 318 320 321 321 320 321 322 324
312 316 315 313 314 315 313 309 305 307 312 314 314 312 311 312 313 315 317 317 316 314 313 312 312 312 316 320 312 305 305 306 305 306 306 307 309 310 310 310 311 312 312 312 312 312 312 312 312 312 314 315 314 315 315 314 315 314 314 314 314 313 313 312 312 311 311 310 310 310 310 310 310 310 311 312 314 316 318 319 320 320 321 323 324 325
314 315 314 313 315 316 317 315 312 311 311 314 315 311 310 314 314 313 315 314 313 317 316 313 313 312 316 323 315 308 310 309 304 305 307 308 309 310 310 311 311 312 312 312 311 311 311 311 312 313 314 315 315 315 315 315 315 314 314 314 313 313 313 313 312 312 312 311 311 310 310 310 310 310 310 311 313 315 318 320 321 322 323 324 324 323
318 317 313 314 315 315 315 315 315 313 312 313 316 312 310 313 313 312 315 313 311 315 316 313 313 316 320 320 316 315 318 314 308 306 307 309 309 309 310 310 311 312 311 311 312 311 311 312 312 314 314 314 314 315 315 315 315 314 314 314 314 314 313 313 313 312 312 312 311 312 311 311 310 310 310 311 313 315 317 320 322 322 322 322 322 321
320 317 312 313 313 312 314 316 316 316 314 313 314 313 311 312 313 315 318 316 313 314 315 313 312 316 318 317 319 320 317 317 314 307 306 309 309 309 311 311 311 311 311 311 311 312 312 312 313 314 314 314 314 314 315 314 315 315 315 314 314 314 314 314 314 313 313 313 313 312 312 311 311 311 310 311 315 317 319 320 320 320 320 320 319 319
320 316 312 314 313 313 319 320 316 316 315 314 314 313 313 313 313 315 315 313 315 315 313 313 312 312 313 315 321 323 318 319 315 306 306 310 309 310 312 311 311 311 311 311 311 311 312 312 313 314 314 314 314 314 314 314 314 314 314 315 315 314 314 314 314 314 314 314 313 313 313 313 312 312 311 312 315 317 319 320 319 319 318 317 317 317
316 314 313 314 313 314 321 321 316 315 315 314 314 313 313 313 313 314 313 312 314 313 312 314 315 313 311 312 317 319 316 314 311 307 308 309 309 311 311 311 312 312 312 312 311 312 312 312 314 314 314 314 314 314 314 314 314 314 314 314 314 314 314 314 314 314 314 314 314 314 314 314 313 313 314 315 316 316 316 317 317 317 316 316 317 316
312 314 314 313 312 313 318 319 316 316 315 314 314 313 313 313 312 313 313 312 312 312 313 316 317 315 313 313 315 313 308 306 307 307 307 308 309 310 311 311 312 312 312 312 312 312 312 313 314 314 314 314 314 314 314 314 314 314 314 314 314 314 314 314 314 314 314 314 314 314 314 314 314 314 314 315 316 316 315 315 315 316 316 316 316 313
312 314 313 312 312 312 314 315 314 314 316 315 314 313 312 313 313 312 312 313 313 312 312 313 314 316 314 311 310 308 305 306 307 306 307 308 309 310 310 311 311 312 312 312 312 312 312 312 313 313 314 314 313 313 313 313 314 314 314 314 314 314 314 314 314 314 314 314 314 314 314 314 314 315 314 314 315 315 315 315 316 316 315 314 312 311
312 313 312 312 314 312 311 313 313 313 314 314 313 313 312 312 312 312 312 312 312 312 313 312 311 314 315 311 307 306 305 305 305 306 308 310 310 310 311 311 311 312 312 311 312 312 311 312 312 313 314 313 313 313 312 312 313 314 314 314 314 314 314 313 314 313 313 314 314 314 314 314 314 315 315 315 315 315 316 315 315 314 312 311 310 310
313 314 313 313 313 312 309 312 314 314 313 312 312 312 312 311 312 312 312 312 312 312 312 312 311 312 314 315 314 313 311 307 305 308 310 310 311 311 311 311 312 312 312 312 312 312 312 311 311 312 313 313 312 312 312 312 313 313 314 314 313 313 313 313 313 313 313 313 314 314 314 314 314 314 315 315 315 315 315 314 313 312 311 310 310 309
314 314 314 314 314 312 309 311 315 315 313 313 314 314 312 311 312 312 312 312 312 311 311 311 313 314 313 314 315 316 314 311 308 309 311 311 311 311 311 312 312 312 312 312 312 312 312 311 311 311 311 312 313 312 311 311 312 313 313 313 313 313 313 313 313 313 313 313 313 313 313 313 313 313 314 314 314 314 313 312 311 311 310 310 309 308
314 315 315 315 316 312 310 312 315 314 312 313 317 317 313 310 312 312 312 312 311 311 311 311 312 314 312 310 310 311 311 311 311 311 311 311 311 311 312 311 312 312 312 312 312 312 312 311 311 311 311 311 312 311 311 311 312 313 313 313 313 313 313 313 313 313 313 313 313 313 313 313 313 313 313 313 313 312 311 311 311 310 310 309 308 308
313 316 317 315 313 311 312 313 314 314 314 314 316 315 312 311 312 312 312 312 310 310 311 310 310 312 309 307 308 310 310 310 311 310 311 311 311 311 312 312 312 312 312 312 312 312 312 312 312 311 311 311 311 311 311 311 312 313 313 313 313 313 313 313 313 313 313 313 313 313 312 312 312 312 312 312 312 311 311 310 310 310 309 308 308 307
312 315 316 315 311 311 313 313 313 315 315 314 313 312 311 311 312 311 312 312 311 310 310 309 309 310 308 306 307 308 308 308 309 310 311 312 312 312 312 312 312 312 312 312 312 312 311 312 312 312 312 311 311 311 311 311 312 312 312 313 313 313 312 312 312 313 312 313 313 312 312 312 312 312 312 311 311 311 310 310 309 309 308 308 307 305
313 315 317 316 312 312 314 314 314 315 314 313 314 313 310 309 309 310 312 312 312 310 309 309 310 310 308 307 306 305 307 310 311 310 310 311 312 312 312 312 312 312 312 311 312 312 311 312 312 312 312 312 311 311 310 311 312 312 312 313 312 312 312 312 312 313 312 312 312 312 312 312 312 312 311 311 311 310 309 309 309 308 308 307 306 303
312 314 317 315 310 310 313 313 313 314 312 314 318 315 309 307 308 310 313 313 312 310 308 308 310 309 308 307 305 305 309 312 311 309 310 312 312 311 312 312 311 312 312 312 312 312 311 311 311 312 312 312 312 311 311 311 311 312 312 312 312 312 312 312 312 312 312 312 312 312 312 312 311 311 311 310 310 309 309 309 308 307 307 305 302 300
311 311 312 312 310 310 312 312 312 312 312 315 316 311 307 307 309 313 315 314 312 309 308 308 308 308 307 306 305 306 309 311 310 310 310 311 311 311 311 311 311 311 312 311 311 311 311 312 311 311 312 312 312 311 311 311 311 312 312 312 312 312 312 312 312 312 312 312 312 311 311 311 311 311 310 310 309 309 308 308 307 306 305 301 298 296
310 310 311 312 310 310 311 312 312 312 315 316 312 305 305 308 311 314 315 312 309 307 307 308 308 308 308 306 305 307 309 310 310 310 310 311 311 311 311 311 311 312 311 311 311 311 311 311 312 312 312 311 312 311 311 311 311 311 312 312 312 312 312 312 312 312 312 311 311 311 311 311 310 310 309 309 308 308 308 307 306 304 302 299 296 295
310 311 312 312 310 310 311 311 311 313 316 315 308 302 305 311 313 312 311 309 308 307 307 309 309 308 308 307 306 308 309 309 309 309 310 311 311 311 311 311 311 311 311 311 311 311 311 311 311 312 311 311 312 311 311 311 311 311 311 311 311 311 312 311 311 311 311 311 311 311 310 310 310 309 309 308 307 307 307 305 303 301 299 297 296 295
310 311 311 310 310 311 311 310 312 314 312 308 305 305 309 313 312 310 308 308 308 309 309 309 309 309 309 307 307 309 309 308 309 309 310 310 310 311 311 310 310 310 310 310 310 310 310 310 310 311 311 311 311 311 311 311 311 311 311 311 311 311 311 311 311 311 310 310 310 310 310 310 309 308 308 307 307 306 306 303 300 298 296 295 295 295
311 311 312 311 310 311 311 311 312 311 307 305 307 309 310 310 309 309 310 309 308 309 310 310 310 310 310 309 309 309 308 308 308 309 309 310 310 310 310 310 310 310 310 310 310 310 310 310 310 310 310 310 311 311 311 311 310 310 311 311 311 311 311 311 311 310 310 310 310 309 309 309 308 308 307 307 306 305 303 301 299 296 295 294 294 294
311 311 312 313 311 311 312 311 309 306 304 306 309 310 309 308 308 310 311 310 309 310 310 310 310 310 310 310 310 309 309 309 309 309 309 310 310 310 310 310 310 310 310 310 310 310 310 310 310 310 310 310 310 310 310 310 310 310 311 311 311 311 311 310 310 310 310 309 309 309 309 308 307 307 307 306 305 303 301 299 297 295 294 293 293 293
309 308 311 315 314 312 311 309 306 304 303 305 308 309 309 309 309 310 310 310 310 310 310 310 310 310 310 310 309 309 309 309 309 309 309 309 309 309 310 310 310 310 310 310 310 310 310 310 310 310 310 310 310 310 310 310 310 310 310 310 310 310 310 310 310 309 309 309 309 308 308 308 307 307 306 305 303 301 298 297 295 295 294 293 293 292
308 306 310 315 314 311 311 310 308 307 305 305 306 308 308 309 309 309 309 310 310 310 310 310 310 310 310 310 309 309 309 309 309 309 309 309 310 310 310 310 310 310 310 310 310 310 310 310 310 310 310 310 310 310 310 310 310 310 310 310 310 310 309 309 309 309 308 308 308 308 307 307 307 306 306 304 301 298 295 294 294 294 294 294 293 293
309 307 311 316 313 311 312 311 306 305 306 306 306 308 308 309 309 309 309 309 310 310 310 309 310 310 310 309 310 310 309 309 309 309 309 310 310 310 310 310 310 310 310 310 310 310 310 310 310 310 310 310 310 310 309 309 310 310 310 310 310 309 309 309 308 308 308 308 308 307 307 307 306 306 305 303 300 297 294 293 293 293 293 294 294 293
307 308 312 315 313 310 312 309 303 304 307 306 305 306 308 309 309 310 309 309 309 309 309 309 309 309 309 309 309 309 309 310 310 309 310 310 310 310 310 310 310 310 310 310 310 310 310 310 310 310 310 310 309 309 309 309 309 309 309 310 310 309 309 308 308 307 307 307 307 307 306 306 306 305 304 302 298 295 293 293 293 292 292 293 293 293
307 310 311 312 312 311 311 309 306 308 311 307 305 307 308 309 309 310 309 309 309 309 309 310 309 309 309 310 309 309 310 310 310 310 310 310 310 310 310 310 310 310 310 310 310 310 310 310 310 310 310 310 309 309 309 308 308 308 308 308 309 308 308 308 307 307 307 306 306 306 306 306 305 304 302 299 296 294 293 292 292 292 292 292 291 291
308 311 309 309 311 312 310 307 306 308 309 308 307 308 309 309 309 310 309 310 310 309 309 309 309 309 309 309 309 310 310 310 310 310 310 310 310 310 310 310 310 310 310 310 310 310 310 310 310 310 310 310 309 309 309 308 307 307 307 307 307 307 307 307 306 306 306 306 306 306 305 304 304 302 300 297 294 293 293 292 292 291 291 291 291 290
Wind_Speed
12 6 5 7 6 8 9 8 6 4 5 6 4 4 5 4 4 4 3 5 2 2 5 5 6 7 11 13 12 10 9 11 14 15 19 22 26 29 30 32 33 34 33 29 28 29 29 28 28 29 30 31 32 32 31 31 31 31 32 33 33 32 31 32 32 31 30 31 31 31 30 30 30 29 28 27 27 26 24 23 23 23 23 23 23 23
10 8 7 8 7 9 9 6 5 3 4 6 6 5 5 5 5 4 3 3 1 3 4 3 4 8 10 13 14 9 7 11 17 18 20 24 26 28 29 32 34 34 34 31 31 31 29 28 29 30 31 32 33 32 32 32 31 31 31 33 33 32 33 34 33 32 31 31 31 30 29 29 29 28 27 27 26 25 24 23 23 22 23 23 23 23
7 7 6 8 8 7 6 6 6 5 4 4 4 4 5 4 3 5 3 2 1 4 3 1 2 8 10 13 17 12 11 17 24 23 25 28 27 26 28 30 31 33 33 32 32 32 30 29 29 30 31 32 32 32 32 33 32 32 32 32 33 33 34 34 33 33 32 31 30 29 28 27 27 26 26 25 24 24 24 23 23 22 22 22 22 22
5 5 9 11 9 8 6 6 7 5 4 3 4 4 4 2 2 4 3 2 1 1 2 1 2 6 7 9 14 16 18 23 28 27 28 29 28 29 30 30 29 29 32 33 33 32 31 30 30 30 31 31 32 33 34 35 34 34 34 34 33 33 34 33 33 33 32 31 29 29 28 27 27 26 25 25 25 24 25 24 24 23 22 22 22 21
4 4 12 10 5 8 6 5 7 5 5 4 4 5 3 2 3 4 1 2 2 2 1 1 4 6 6 8 11 11 12 18 25 24 25 29 31 32 32 31 31 29 30 33 33 33 32 31 30 29 29 30 31 33 34 35 35 35 34 35 34 33 33 33 33 33 32 32 31 31 30 30 30 29 29 28 27 26 26 25 24 24 23 23 22 21
5 5 14 11 5 9 7 5 7 6 5 5 5 7 6 5 4 2 0 1 2 3 2 1 3 7 4 8 11 8 4 9 17 16 19 27 29 31 32 33 35 35 34 34 34 33 33 32 31 30 30 30 32 33 33 33 34 34 34 34 34 33 34 33 33 33 33 33 33 33 33 33 33 32 32 30 28 27 26 25 24 23 23 23 23 23
4 8 13 12 9 9 7 6 6 8 5 4 6 9 7 6 4 2 2 1 2 4 3 1 5 7 5 6 9 7 5 8 11 11 16 25 26 27 31 33 35 37 38 38 37 35 34 34 34 33 32 32 33 32 30 31 32 34 35 34 34 34 35 34 34 33 34 34 35 35 34 34 34 34 32 29 27 26 26 26 25 24 23 23 23 23
7 10 8 10 11 8 8 8 7 10 8 4 5 10 9 7 7 6 4 4 4 2 3 0 2 5 6 7 6 3 5 8 9 10 14 21 26 28 32 34 36 38 39 40 41 40 39 38 38 38 36 33 32 30 29 30 31 32 33 34 34 34 34 34 34 34 34 35 36 35 35 34 34 34 32 29 28 28 28 27 27 26 25 24 23 23
9 12 12 14 12 8 9 7 9 12 7 5 4 7 7 6 6 6 5 5 2 3 6 3 1 4 6 6 3 1 5 10 9 9 12 17 25 29 32 35 36 36 37 39 41 42 42 42 41 41 38 33 30 28 28 29 29 29 31 32 33 33 34 34 34 35 35 35 36 36 36 36 35 34 33 32 31 31 31 30 29 28 27 25 24 22
4 11 16 15 10 8 6 6 10 12 6 3 6 6 3 3 2 1 3 2 2 3 8 4 3 5 8 6 3 1 5 9 8 7 11 18 24 27 29 32 31 30 31 33 36 37 38 39 39 39 37 34 32 29 27 27 28 30 30 31 32 32 33 33 34 35 35 35 36 36 36 36 36 35 34 34 34 34 33 32 31 30 28 26 24 22
1 5 13 8 6 8 7 5 7 11 9 7 7 5 6 4 4 3 1 3 2 6 6 3 6 4 8 6 7 4 5 7 7 7 9 17 23 24 24 25 24 24 25 26 29 30 31 32 34 36 36 36 35 32 29 28 28 29 30 31 31 31 31 32 32 33 34 35 35 36 36 36 35 35 35 35 35 35 34 34 33 30 28 26 24 22
5 5 6 3 5 10 9 4 2 5 9 8 5 4 3 1 3 3 3 3 3 7 3 2 4 4 8 7 5 5 6 6 8 8 8 14 19 20 17 15 15 16 20 22 25 25 25 25 27 32 34 35 35 34 31 29 29 29 29 30 31 31 31 31 31 31 32 34 34 35 35 35 34 34 35 35 35 35 34 33 32 30 28 26 24 23
3 1 2 0 6 10 9 5 2 4 4 5 4 5 4 0 1 1 2 1 5 7 2 2 2 4 10 7 3 6 7 7 10 12 15 17 18 17 12 10 10 11 13 17 21 23 22 21 22 26 30 31 32 32 32 30 29 29 28 29 30 30 30 30 30 30 31 32 32 32 33 33 33 33 34 34 34 33 33 32 30 29 27 25 24 23
2 5 2 3 4 9 12 8 4 1 4 7 6 7 7 4 4 7 4 2 5 5 2 2 2 4 7 4 7 9 9 15 17 19 23 23 24 24 19 16 14 10 9 10 14 18 20 18 18 20 23 26 30 31 31 31 30 30 29 29 30 29 29 30 30 30 30 30 30 30 30 30 30 31 32 32 31 31 30 30 29 27 25 24 23 21
9 4 5 7 4 10 13 9 8 7 6 7 4 5 6 5 6 6 5 3 4 3 2 2 2 4 3 3 8 10 13 19 19 18 21 24 27 29 28 27 24 17 11 9 9 11 14 16 16 16 18 21 25 28 30 31 30 31 30 30 30 30 30 30 30 30 30 29 29 29 29 29 29 30 30 30 29 29 28 28 26 25 24 23 21 20
11 6 3 1 3 11 12 7 8 10 5 4 3 4 5 6 4 3 3 4 3 2 2 3 4 4 4 6 9 8 11 16 18 18 19 24 27 27 28 30 29 26 19 14 12 10 10 12 13 14 15 17 20 22 25 27 28 29 29 30 30 30 30 30 30 30 30 29 29 29 29 28 28 29 29 29 28 27 26 25 25 24 23 22 21 19
8 4 3 3 3 9 11 10 9 9 7 2 3 6 5 4 6 4 2 0 3 3 3 2 5 5 3 8 10 7 6 10 12 14 17 24 25 23 26 27 28 30 28 22 17 12 11 10 10 11 13 14 16 18 20 22 23 25 25 27 28 28 29 30 31 31 30 30 30 30 29 29 28 28 28 28 27 26 25 24 24 23 22 22 21 20
6 2 3 1 4 4 6 10 7 5 7 5 5 8 3 3 3 3 2 2 2 5 4 1 6 6 3 6 6 4 6 10 11 9 12 19 19 19 25 25 23 25 27 24 18 15 13 11 10 10 11 12 13 15 17 18 20 22 23 25 26 27 28 29 30 30 31 31 31 30 30 29 28 28 27 27 26 25 25 24 24 23 23 22 21 20
5 4 3 2 4 2 2 7 4 1 2 4 6 6 5 3 3 2 2 3 3 4 5 3 4 5 6 6 3 3 8 12 14 10 7 10 14 19 24 23 20 21 23 22 19 16 15 13 12 11 11 11 12 12 14 15 17 19 21 24 25 27 28 28 29 29 29 30 30 29 28 27 27 27 27 26 26 25 25 24 23 22 22 21 20 20
5 5 1 2 2 3 1 4 7 6 1 2 3 5 3 3 4 3 3 4 4 4 5 3 4 4 7 7 5 6 9 9 12 11 7 10 16 21 23 21 17 17 19 20 19 17 16 15 13 11 11 11 11 11 12 12 13 15 17 20 23 25 26 27 28 27 27 27 27 26 26 26 26 26 26 25 25 25 24 23 22 21 20 19 19 19
4 4 3 0 0 3 3 5 8 10 6 3 4 6 4 2 2 2 2 2 4 4 4 2 5 7 6 5 9 10 10 11 13 11 8 11 14 17 21 20 15 12 15 18 18 17 18 17 13 11 10 10 10 11 11 11 12 12 13 15 16 19 21 22 24 24 25 25 25 25 25 25 26 25 25 24 23 23 22 21 21 20 20 19 19 19
3 3 6 3 2 4 4 4 3 7 9 8 7 6 6 4 4 3 5 3 3 3 5 3 6 9 5 5 9 10 11 12 12 8 8 12 14 13 13 15 13 11 12 15 16 18 19 18 13 11 10 10 11 11 11 11 11 10 10 10 11 12 14 16 18 20 21 22 23 23 23 23 23 23 23 23 22 21 21 21 21 21 20 19 17 18
3 5 6 3 3 4 3 3 1 1 4 6 5 6 7 6 6 7 7 4 2 1 2 4 4 9 4 5 7 8 9 9 6 4 7 13 13 11 10 10 11 13 14 15 16 18 19 18 15 12 11 11 11 12 11 10 9 9 9 9 10 10 11 12 13 15 17 18 20 20 21 21 21 21 21 20 20 20 20 20 20 19 18 17 17 20
4 5 5 3 1 3 4 3 3 3 1 4 6 6 8 7 7 6 4 4 3 4 3 2 5 9 5 2 3 8 11 12 11 9 9 12 12 11 12 11 10 12 14 13 13 15 17 17 15 13 12 12 12 11 10 9 9 9 9 10 10 11 11 11 12 13 14 15 16 17 17 18 18 18 18 18 19 19 19 19 18 17 16 16 20 22
5 4 5 5 2 2 3 3 3 3 4 4 4 3 5 4 5 5 3 4 3 6 7 5 7 9 4 4 4 7 9 11 16 15 11 12 13 12 10 9 8 9 10 11 10 12 14 15 14 14 14 13 11 9 9 8 9 9 10 10 10 11 11 11 11 11 11 12 13 13 14 15 15 16 16 18 18 18 17 17 16 16 18 19 21 21
5 4 6 8 8 8 8 5 5 5 4 2 1 4 5 6 8 6 4 4 6 6 7 7 10 8 5 5 6 6 5 8 13 12 10 13 15 12 7 6 7 8 9 10 10 10 12 14 14 15 15 13 11 10 9 10 10 10 11 11 11 11 10 10 10 11 11 11 12 12 13 14 14 15 15 17 17 16 17 18 19 19 20 21 22 22
3 3 7 8 11 12 9 5 4 7 7 3 2 6 6 6 7 6 5 5 7 3 3 10 13 9 7 5 6 7 5 7 8 7 7 11 12 9 5 6 7 9 9 9 10 11 13 15 15 15 15 13 12 12 12 12 12 12 12 11 11 11 11 11 11 11 12 12 12 13 13 14 14 14 15 16 17 17 18 19 20 21 21 23 24 24
3 5 10 11 14 11 6 6 7 10 11 10 9 10 10 9 9 7 7 11 7 5 9 16 12 12 12 7 7 8 6 7 7 6 8 8 8 8 7 8 8 8 9 10 12 14 14 15 15 15 15 15 14 14 14 14 14 14 13 12 12 12 11 12 12 12 12 12 13 13 12 13 14 13 14 16 18 20 21 21 21 22 23 24 23 21
4 8 11 11 12 8 5 8 9 10 10 11 14 14 14 14 14 13 15 19 12 9 18 15 11 17 15 7 9 10 7 7 6 6 7 7 8 10 9 9 9 9 11 12 13 15 16 16 15 15 16 16 16 16 16 16 16 16 15 14 13 13 12 12 12 12 13 12 12 13 13 14 14 15 15 17 19 20 22 23 23 24 24 23 21 20
6 8 10 11 11 6 6 8 9 10 8 8 13 15 14 16 17 16 20 24 19 20 21 7 3 12 10 7 11 9 5 6 6 7 9 8 9 10 9 10 11 12 14 13 13 14 14 15 15 15 17 18 19 19 19 18 18 17 16 15 15 14 14 13 13 12 13 13 13 14 15 15 16 17 19 21 22 22 22 23 24 24 23 22 21 21
7 7 8 9 7 4 5 5 6 8 9 8 11 12 12 14 16 19 25 25 18 21 21 6 3 8 6 6 8 5 3 6 8 9 9 7 8 10 11 13 14 14 14 13 13 13 12 14 16 17 19 20 20 20 19 20 19 18 18 17 16 16 15 14 14 14 15 15 15 16 17 17 19 20 22 22 23 24 24 23 23 22 22 22 22 21
7 5 5 8 7 5 3 6 7 6 7 5 6 11 15 17 18 21 21 16 13 14 14 10 9 9 5 4 5 4 5 7 9 11 10 8 11 14 14 14 13 12 13 13 13 11 12 15 17 19 20 21 20 20 20 21 21 21 20 19 18 18 17 17 17 17 17 17 17 18 18 19 20 21 23 23 23 24 23 23 22 22 23 23 22 21
6 6 4 7 9 3 1 6 10 8 6 3 8 15 21 20 18 16 12 11 13 12 11 12 10 6 6 6 5 4 6 8 12 16 16 15 16 15 15 14 13 14 14 14 13 13 15 16 16 19 20 20 20 20 20 20 21 22 21 19 19 19 19 19 19 19 19 19 19 19 19 20 20 21 21 23 23 23 23 23 24 24 23 23 22 22
7 8 4 5 6 1 2 6 9 5 7 9 8 12 18 17 15 14 14 14 14 12 12 12 6 7 9 10 9 8 9 13 18 21 21 19 18 17 17 17 16 16 15 14 15 16 18 17 16 17 19 20 21 21 20 20 21 22 22 20 20 21 20 20 20 19 19 19 19 19 19 20 20 20 21 23 23 24 24 24 24 24 23 23 23 23
8 7 4 2 4 2 3 5 6 7 12 7 1 6 12 16 17 18 21 21 18 17 19 16 10 7 8 11 15 18 22 26 28 27 25 23 22 21 22 22 19 17 18 19 19 20 20 17 14 14 15 17 20 21 22 23 23 24 24 23 22 22 21 20 20 19 19 19 19 19 19 20 21 21 22 24 25 25 25 25 25 25 24 24 24 24
10 7 3 2 4 3 3 5 6 7 5 3 1 2 5 11 14 16 20 20 17 14 14 15 14 10 8 14 22 25 29 31 30 33 37 34 31 31 29 27 25 25 27 26 23 21 19 16 14 13 13 15 18 21 24 25 25 26 26 26 24 23 22 21 20 19 19 19 19 19 20 21 22 23 24 25 26 26 26 26 26 26 26 26 26 26
10 8 4 2 1 2 3 4 4 4 6 9 8 6 9 10 11 12 12 14 12 12 13 14 16 14 13 19 24 20 18 16 16 26 38 37 33 34 33 30 32 33 31 27 23 20 18 17 17 16 15 15 16 20 24 27 28 28 27 27 26 24 23 22 21 20 20 19 20 20 21 22 23 24 26 27 27 27 27 27 27 27 27 27 28 27
8 8 7 5 1 2 4 1 2 3 10 14 10 8 11 11 11 11 7 13 13 18 22 19 15 16 14 15 18 13 9 7 6 16 31 34 32 34 35 36 36 33 29 24 21 19 19 19 21 20 18 17 16 18 24 27 29 28 28 28 27 25 24 23 21 21 20 20 20 21 22 23 24 25 27 27 28 28 28 28 28 28 28 28 27 27
6 6 7 6 2 3 5 5 6 9 12 8 6 7 12 19 19 13 1 13 9 15 24 21 14 16 16 17 20 14 8 6 7 18 35 40 38 39 39 38 36 30 27 24 21 21 22 23 24 23 21 20 17 17 22 27 28 29 29 28 28 26 25 23 22 21 21 21 22 22 23 24 25 26 27 27 28 29 29 29 29 29 29 28 27 27
7 6 8 9 7 8 10 8 6 7 9 5 7 10 20 30 25 13 3 13 7 16 29 27 19 21 25 26 22 12 8 13 14 24 39 41 37 40 39 35 32 29 26 26 24 25 25 25 26 26 24 21 17 16 20 24 28 30 30 29 29 27 24 22 22 22 22 22 23 23 24 25 26 27 27 28 29 30 30 30 30 30 29 29 28 28
5 5 6 9 10 10 11 10 6 5 7 6 5 14 29 31 18 7 10 10 6 15 29 31 29 32 34 31 23 17 25 34 26 20 24 24 26 32 34 32 31 29 28 28 28 28 28 28 27 25 24 22 20 18 19 22 27 30 31 30 30 27 24 22 23 23 23 24 24 25 26 26 27 28 28 29 30 30 31 31 30 30 30 30 29 29
6 5 4 6 9 7 7 8 5 7 7 9 9 17 26 19 7 9 7 5 7 13 21 28 32 34 32 31 32 35 39 38 28 17 13 14 17 20 22 25 27 27 28 28 28 28 28 28 28 27 26 26 25 23 21 21 25 28 30 31 30 27 25 24 24 25 25 25 26 26 27 28 28 29 29 30 31 31 31 32 31 30 30 30 30 30
10 9 7 7 6 4 2 6 6 9 8 20 19 10 9 6 5 7 8 7 7 12 16 23 27 27 26 30 37 43 40 31 26 24 20 19 19 17 18 20 20 22 23 23 22 23 23 24 26 27 27 28 27 25 22 21 23 26 29 31 30 28 27 26 25 26 26 27 27 27 28 29 29 30 30 31 32 32 32 32 32 32 32 32 31 31
10 10 9 8 6 6 7 10 8 5 9 30 27 11 13 11 6 9 11 7 8 12 15 18 20 20 24 27 31 38 39 33 30 29 27 27 27 24 22 21 19 19 20 19 19 19 19 21 21 22 24 24 24 23 22 21 22 24 27 30 29 29 29 27 26 27 27 27 27 28 29 29 30 31 31 32 33 33 33 33 33 34 33 33 32 31
12 11 8 6 7 8 7 8 6 1 13 33 30 19 27 27 10 8 14 11 8 12 14 15 16 16 18 21 24 28 31 32 32 32 30 29 28 25 24 22 20 19 18 18 18 17 18 19 18 18 19 19 19 20 20 20 21 23 26 28 29 30 29 27 26 26 26 27 27 28 29 30 31 32 32 33 34 34 35 35 35 35 34 33 32 31
5 5 6 4 3 4 5 4 6 2 10 27 23 14 28 35 20 11 15 13 10 12 13 13 15 14 14 17 19 21 22 23 24 26 25 23 21 20 20 20 19 18 18 17 17 17 17 17 17 17 16 15 15 16 15 16 19 21 23 25 27 28 27 26 25 25 25 27 28 28 30 31 33 34 34 35 35 36 36 36 36 35 34 34 33 32
2 5 6 3 4 7 9 8 8 6 11 24 22 13 20 33 31 21 16 13 11 12 14 15 14 13 14 15 16 17 17 17 17 19 19 18 17 16 16 17 17 17 16 15 15 15 16 15 15 15 14 13 13 13 13 14 16 18 21 23 25 26 26 25 25 25 26 27 28 30 32 33 34 36 36 37 37 38 38 37 36 35 35 34 34 34
4 8 7 4 6 8 7 5 8 11 17 27 29 22 18 27 34 30 21 17 15 16 17 17 17 17 17 16 16 16 15 15 15 16 15 16 16 15 16 16 16 15 15 14 14 14 14 13 13 13 12 12 11 11 12 13 14 17 19 22 24 25 26 25 25 25 26 28 29 31 33 35 36 37 38 38 39 39 40 39 38 37 36 35 34 33
8 9 8 6 5 5 5 2 6 8 12 19 26 26 22 23 28 31 28 25 22 19 19 19 19 19 18 17 17 17 16 15 15 15 15 15 15 15 16 16 15 15 14 14 14 14 13 12 11 11 10 10 10 11 12 13 14 17 19 21 23 25 25 26 26 26 27 29 31 33 34 36 37 38 39 40 40 40 40 39 38 37 36 34 33 32
9 8 6 5 7 10 9 8 12 8 4 10 21 26 26 23 24 28 31 31 28 24 22 21 21 20 19 19 19 18 17 17 16 16 16 15 14 14 15 15 15 15 15 15 15 15 13 12 11 11 11 11 12 13 14 15 16 17 19 21 23 24 26 27 27 28 29 30 32 34 36 37 39 40 40 41 41 41 41 40 38 38 37 35 34 33
10 11 10 8 10 14 10 14 20 13 4 12 25 29 28 27 27 28 30 32 33 30 26 23 22 22 22 21 21 21 20 18 17 16 16 15 15 15 15 14 14 14 14 14 14 13 12 12 12 13 14 14 15 15 16 17 18 18 19 21 22 24 26 28 28 29 30 31 33 35 37 38 39 40 41 42 42 42 41 41 40 39 38 36 34 33
Wind_Direction
166 163 195 195 187 187 197 199 188 177 193 190 170 200 202 192 247 254 251 318 12 189 253 236 229 239 240 257 264 250 242 240 246 251 249 248 247 245 243 243 245 247 249 251 249 247 246 245 245 244 244 243 242 240 239 238 237 236 235 235 234 233 233 233 233 233 231 231 230 230 230 231 233 234 235 235 235 236 236 237 239 241 243 245 248 251
171 195 200 180 182 189 195 184 155 141 165 179 180 197 216 206 237 250 227 306 43 173 269 292 246 257 254 261 263 236 212 239 239 240 248 251 251 250 248 247 248 250 251 250 249 247 246 245 244 244 244 244 244 242 241 240 238 236 235 235 234 232 233 233 233 234 233 232 231 231 232 233 236 237 238 239 238 240 241 242 244 244 246 248 250 253
185 207 184 169 179 176 181 183 182 193 167 164 165 165 214 218 238 262 248 296 132 177 254 312 230 254 256 260 263 243 223 245 248 243 248 252 252 252 253 254 252 251 250 247 246 246 244 244 244 244 245 245 245 245 244 243 240 238 236 234 233 232 232 233 234 235 234 234 234 235 237 240 243 244 244 246 247 248 247 247 248 250 250 251 252 254
187 207 190 179 173 164 175 185 184 211 201 164 142 148 212 213 181 243 259 299 285 154 216 183 266 262 257 265 268 250 236 248 255 252 251 251 251 253 256 258 258 254 252 248 245 245 244 244 244 244 245 245 246 245 244 243 242 239 236 234 234 233 233 233 234 235 236 237 238 239 242 246 248 250 251 251 250 248 246 246 247 249 251 253 254 255
191 208 183 165 152 165 168 177 174 196 222 212 179 164 177 180 194 228 275 285 284 345 80 96 312 278 238 250 263 252 235 247 255 251 248 248 249 252 253 255 257 255 252 250 248 246 245 244 243 243 245 246 246 245 244 243 242 240 238 237 236 235 235 234 234 235 236 237 238 239 241 244 246 247 247 246 243 242 243 243 243 246 250 254 257 258
212 191 164 150 165 177 170 193 185 178 205 240 213 175 170 186 210 249 289 13 331 308 291 123 275 274 252 241 248 256 247 247 253 249 245 247 248 248 249 250 253 253 251 250 249 247 246 244 243 243 245 248 248 247 245 244 243 242 241 240 238 237 237 236 235 235 236 237 237 238 238 240 242 242 242 241 241 242 245 246 246 248 250 253 256 258
204 176 159 159 173 172 180 209 194 166 171 241 211 168 172 203 224 235 164 168 222 258 285 144 222 265 296 253 239 255 276 262 260 261 250 249 249 247 249 251 252 251 250 249 249 247 246 244 242 242 246 250 250 249 248 246 243 241 241 241 239 239 239 239 238 237 237 237 238 239 240 241 243 244 245 246 247 249 251 253 253 253 252 252 254 256
159 158 156 160 161 167 197 209 191 166 163 234 203 156 169 206 224 218 183 216 238 275 293 237 208 269 279 250 232 236 283 278 270 271 262 253 250 249 251 253 253 252 251 250 249 248 247 246 247 248 251 254 252 250 249 246 244 241 240 240 240 240 240 241 240 240 240 239 240 241 242 243 245 247 250 252 254 256 257 257 257 257 257 255 254 255
142 163 174 165 167 190 199 185 163 160 181 237 178 139 171 194 212 213 201 227 293 349 264 230 90 273 265 256 249 174 256 263 261 263 264 256 250 248 250 253 255 257 256 254 253 252 252 252 253 254 255 254 250 248 247 245 245 243 240 240 241 241 241 241 240 241 242 242 243 243 244 246 247 249 252 254 256 257 259 259 260 260 260 260 259 259
158 183 178 164 174 195 171 136 151 165 196 206 121 86 74 80 68 138 191 196 43 296 251 209 156 246 267 246 203 197 247 246 256 259 259 260 255 250 250 253 257 259 257 255 254 254 255 255 255 255 254 249 244 244 245 244 244 243 241 241 241 242 242 242 241 241 242 243 244 245 246 248 249 251 252 253 255 256 258 260 260 261 262 264 267 267
345 160 169 166 185 172 128 108 157 169 157 122 107 70 52 48 47 54 70 84 93 264 267 207 174 216 277 247 177 199 220 201 224 249 259 264 261 257 257 258 259 258 255 252 252 253 254 255 254 252 248 243 241 241 241 241 242 241 241 241 242 244 245 245 243 242 243 243 245 246 247 249 251 252 252 253 254 256 258 260 262 265 267 269 271 270
29 107 172 195 166 145 117 107 129 145 142 128 124 116 91 1 28 35 4 69 205 246 280 266 171 167 251 244 164 214 235 199 205 221 242 256 260 263 262 259 257 254 251 248 247 248 249 252 252 246 242 238 237 238 238 238 241 242 242 242 243 243 245 246 246 244 244 244 245 246 248 250 251 252 254 254 256 257 259 262 264 267 270 271 270 268
65 147 253 129 169 163 139 133 33 34 123 142 137 141 148 285 37 213 246 170 231 247 232 195 151 188 243 252 229 257 270 245 225 221 233 245 257 263 254 248 260 255 248 246 244 244 245 249 250 244 238 234 233 234 235 236 240 243 243 243 242 242 243 245 246 245 245 245 246 247 248 249 250 252 254 255 256 258 260 262 265 266 268 268 267 267
174 300 287 156 200 186 163 159 179 165 166 170 165 168 174 168 179 205 216 224 244 253 234 181 165 243 270 274 231 232 243 244 242 241 246 253 260 264 259 257 266 265 259 262 252 245 242 241 243 241 235 231 231 232 234 236 239 241 242 242 242 241 241 242 243 244 245 245 246 247 248 249 250 251 253 255 257 258 260 262 264 265 266 265 266 265
179 242 208 183 191 180 176 178 165 139 157 183 159 148 179 187 185 195 199 209 227 247 271 232 191 206 225 256 233 231 252 261 264 262 261 263 263 264 264 261 260 261 266 280 273 256 242 234 231 231 229 227 228 230 233 235 237 239 240 241 241 240 239 241 241 242 243 245 246 247 248 248 249 250 252 254 256 258 260 261 262 264 264 263 264 263
181 219 240 185 139 163 170 166 131 115 146 208 119 132 208 202 147 125 188 183 161 215 254 221 224 218 209 275 274 255 267 274 273 271 266 263 262 261 262 261 257 254 256 266 272 268 248 232 222 221 221 221 224 226 230 232 235 237 238 239 240 240 240 241 242 242 243 244 245 246 247 247 248 249 251 252 254 255 257 258 259 259 258 259 259 256
179 219 329 34 115 171 169 160 156 155 165 159 148 185 213 174 124 106 228 33 87 212 249 206 246 287 307 286 275 250 263 280 271 267 260 257 259 258 259 260 255 249 250 254 257 259 254 236 223 221 221 224 227 229 232 234 235 237 238 239 239 240 241 241 242 242 242 243 244 244 245 246 247 248 249 251 252 253 254 253 253 252 251 251 249 249
163 119 337 117 144 198 165 145 159 178 150 135 188 194 145 93 116 116 204 330 90 223 270 246 240 269 271 266 274 242 249 270 267 254 251 257 257 251 253 257 253 247 247 247 243 245 249 239 229 230 231 235 238 239 240 240 240 240 240 240 240 240 241 241 242 242 241 241 242 243 244 245 246 247 249 250 250 250 250 248 247 246 245 243 243 246
146 107 317 242 150 165 119 130 151 247 140 147 184 175 136 164 210 144 168 198 178 228 274 304 281 256 217 232 297 276 240 249 258 256 253 258 250 245 250 255 256 250 242 235 231 236 240 233 231 236 239 243 244 244 243 240 239 239 239 239 238 237 237 237 238 238 239 239 240 242 243 244 246 248 248 248 247 246 245 244 243 242 241 240 241 241
144 127 250 265 171 142 110 164 187 197 156 75 136 166 165 169 185 175 166 173 173 215 250 297 318 260 218 202 197 230 241 241 253 262 259 246 242 244 248 255 264 257 235 221 221 229 231 227 231 236 239 243 243 243 241 236 235 235 236 238 238 238 237 236 236 237 237 238 239 240 241 243 244 245 245 244 243 243 241 240 238 236 237 237 237 239
139 134 148 248 321 149 181 214 193 175 163 141 153 178 193 144 141 171 172 152 149 181 211 264 283 259 239 193 185 208 233 242 246 249 251 254 259 259 253 254 265 258 227 215 217 225 227 226 231 236 238 241 241 242 240 235 235 234 235 237 237 238 239 238 239 238 238 238 237 237 238 239 240 241 241 239 237 236 236 235 233 232 232 231 233 235
161 142 142 137 160 181 229 263 196 168 172 176 178 184 180 151 121 163 218 214 117 166 186 183 268 268 248 194 195 198 212 233 244 238 242 262 278 288 271 256 256 247 225 218 220 225 227 227 232 237 237 238 238 239 238 235 234 232 231 229 226 226 228 230 232 233 234 234 232 233 233 234 236 236 235 233 231 230 229 227 227 228 226 225 227 226
102 102 124 131 187 206 270 315 328 224 170 160 196 198 171 166 161 175 215 213 100 224 176 119 269 274 255 198 209 216 223 249 274 250 249 266 276 290 290 269 251 236 223 220 222 225 227 228 232 235 234 234 235 234 233 230 225 222 219 215 213 212 211 215 218 220 224 226 227 228 229 229 231 231 229 227 226 227 225 221 222 224 223 221 220 217
132 117 115 80 318 306 333 355 354 331 123 167 231 205 167 187 188 171 189 161 150 228 188 120 265 269 285 288 260 270 274 286 291 276 274 284 282 279 278 271 250 226 218 221 224 223 224 226 229 231 231 230 231 230 227 221 213 209 206 203 202 203 205 207 210 213 215 218 221 223 224 226 228 228 226 223 223 223 220 216 216 216 214 212 210 210
161 142 127 119 101 11 348 330 301 263 208 198 224 167 150 153 125 118 120 117 198 221 167 165 248 255 283 327 308 293 292 286 275 266 268 277 277 276 274 261 237 211 209 219 221 218 218 220 223 224 225 225 223 222 218 211 204 199 198 197 196 197 200 203 206 211 213 215 218 220 221 224 225 225 221 217 217 217 211 207 207 207 207 208 210 215
144 160 155 155 164 178 194 206 208 197 188 206 106 122 155 149 138 157 141 133 225 221 149 184 240 259 301 326 313 302 300 282 274 270 261 257 263 273 272 241 214 204 210 218 220 220 216 215 217 218 219 219 214 210 208 205 201 198 196 195 194 194 196 198 201 204 206 208 211 214 215 217 219 218 214 211 211 210 203 200 204 209 211 215 220 226
120 175 174 178 189 195 192 179 144 126 131 171 137 125 147 148 144 140 120 175 212 158 151 224 236 255 274 288 300 299 282 268 278 292 277 258 259 265 247 215 206 207 219 224 222 223 220 216 216 215 215 214 208 204 204 205 204 202 201 199 197 196 194 196 199 200 202 204 206 210 213 213 215 214 208 204 203 203 203 205 209 214 217 222 227 231
99 190 185 190 200 199 171 159 151 136 152 170 154 151 163 158 152 148 178 214 185 117 245 239 221 234 244 237 262 276 268 258 268 284 281 266 248 235 220 215 212 212 223 228 225 225 223 220 217 215 216 215 211 209 207 207 208 205 204 203 202 200 197 197 199 200 203 204 205 210 211 209 212 211 204 200 199 199 203 208 214 217 220 226 229 227
140 201 192 187 196 188 143 162 163 149 161 168 164 172 172 167 176 183 208 222 194 191 243 234 200 229 235 202 226 244 238 243 265 273 264 247 227 221 215 217 223 226 229 226 222 222 220 218 216 215 218 219 219 219 216 213 213 210 207 206 205 205 204 203 203 204 206 207 208 210 211 209 209 208 203 201 204 206 206 209 215 219 223 226 223 213
167 194 188 177 182 172 147 166 164 149 145 160 178 183 172 177 190 193 215 227 213 216 236 223 171 247 241 193 220 238 228 233 261 265 248 237 232 229 225 226 228 230 230 227 224 223 220 219 218 216 217 220 222 223 223 221 220 217 214 213 212 212 210 210 210 211 211 212 212 212 213 213 211 209 207 205 208 212 213 214 218 221 221 217 208 200
192 189 169 155 162 175 159 136 131 144 147 161 187 189 178 186 197 205 219 225 218 225 236 248 333 277 254 217 227 246 249 235 247 253 244 237 235 233 234 233 231 232 235 237 234 231 231 228 226 223 219 221 224 225 227 228 225 222 220 218 218 217 215 215 215 216 217 217 217 216 215 216 214 214 214 213 213 215 216 217 217 214 208 201 197 195
194 181 135 140 169 209 188 121 107 106 105 126 186 194 191 195 202 213 221 219 214 226 234 248 266 254 237 237 235 247 251 238 242 246 241 233 228 229 234 236 237 242 248 250 248 250 256 245 234 232 228 225 226 229 231 231 228 225 222 220 220 219 217 217 216 218 218 218 219 220 219 220 218 217 217 217 216 215 213 211 206 201 198 196 195 193
156 144 130 164 179 231 293 132 120 98 99 195 224 203 199 204 211 222 235 225 217 215 213 230 240 200 178 205 216 233 234 228 236 234 229 228 226 226 234 238 248 258 261 264 265 268 274 265 249 242 239 235 235 236 237 235 231 228 224 221 221 221 220 220 218 219 218 217 218 219 221 222 221 219 217 214 212 210 206 202 199 197 198 196 194 190
138 135 151 175 157 223 264 133 112 126 198 227 225 189 193 206 210 221 236 229 218 215 220 230 220 153 173 200 209 220 222 227 235 231 228 234 235 238 246 249 256 262 262 269 271 265 270 273 264 252 246 244 244 243 242 237 231 228 224 220 220 222 223 223 221 221 220 218 218 219 220 221 220 218 215 212 209 205 201 200 199 198 197 195 192 189
138 131 150 145 107 143 192 123 126 208 223 231 157 149 189 203 203 214 229 228 217 217 224 231 227 196 189 205 216 225 232 238 244 246 248 252 251 253 258 259 259 261 264 271 270 261 263 273 275 267 257 252 249 246 241 234 227 225 223 219 218 221 223 224 223 222 221 220 221 221 221 221 219 216 214 210 207 204 202 201 200 197 194 193 192 192
140 131 128 93 93 131 152 148 185 226 256 270 51 92 183 200 201 213 234 237 223 218 228 230 229 224 206 217 226 230 236 243 251 255 256 258 259 260 261 260 259 261 266 270 265 258 264 275 278 273 263 257 251 245 240 232 225 225 224 221 219 219 221 223 222 221 222 221 223 223 222 221 218 215 212 210 207 205 204 203 200 196 194 193 194 193
141 136 117 98 102 116 134 189 233 327 312 256 231 200 187 191 189 193 232 250 220 203 218 219 221 224 212 219 230 231 232 243 258 256 250 248 251 252 251 251 253 255 259 260 256 255 264 270 269 267 261 255 250 244 239 232 226 225 226 226 223 220 220 222 221 222 223 224 225 225 223 222 219 215 212 210 209 207 205 202 199 197 197 197 195 194
148 146 142 153 167 79 107 216 283 285 258 245 226 188 172 168 158 152 212 255 223 201 212 212 213 219 211 215 226 217 204 219 253 254 244 239 237 238 238 240 245 249 251 249 248 250 253 256 260 264 262 255 250 244 238 233 230 228 229 229 228 225 222 222 223 225 226 227 228 227 225 222 219 217 215 213 211 209 205 202 200 199 199 199 198 195
138 133 142 153 146 131 162 202 205 219 244 233 165 149 147 148 138 114 209 260 226 188 203 207 206 212 206 204 205 186 167 204 237 246 243 239 235 233 234 237 241 244 244 242 243 245 247 251 254 257 260 258 255 249 240 236 234 233 233 233 231 229 227 226 227 229 230 231 230 228 226 224 221 219 216 215 212 208 205 203 201 200 199 198 199 198
155 161 170 177 182 179 188 206 211 232 249 214 166 168 152 143 132 106 258 251 205 173 192 196 198 209 207 200 192 171 183 214 228 242 242 241 240 237 238 241 242 241 239 238 242 246 249 252 252 254 259 261 261 256 246 241 238 237 236 235 233 232 230 229 232 232 232 233 231 229 227 224 221 220 216 214 211 207 206 205 203 201 199 198 198 200
159 176 182 188 192 187 191 208 236 257 238 220 198 163 145 134 130 160 220 225 178 180 192 191 197 209 207 194 182 190 216 220 225 242 245 244 244 242 242 244 243 241 240 241 245 248 250 252 252 253 257 260 260 257 251 247 244 241 239 238 235 233 231 230 232 233 233 233 230 229 227 224 221 219 214 211 210 207 206 206 205 203 202 200 200 201
164 174 182 186 184 180 191 204 241 272 223 176 164 164 152 141 170 209 187 129 143 179 189 192 203 213 207 195 194 209 221 224 227 237 244 246 245 240 239 240 239 240 243 244 248 251 251 253 254 254 255 257 258 258 255 251 249 246 243 240 238 234 230 230 232 232 232 232 230 228 226 223 219 216 212 209 208 208 207 206 205 205 205 203 203 203
174 170 184 193 167 134 174 188 213 264 204 143 134 158 184 174 177 160 120 97 146 169 180 195 209 215 210 204 209 217 224 227 228 231 235 240 243 241 237 235 233 236 241 244 247 249 249 250 251 252 253 254 256 257 256 252 249 246 244 241 238 234 230 229 231 232 232 231 230 228 225 222 218 214 211 208 208 209 209 207 206 206 206 207 206 205
180 177 186 202 180 161 189 197 205 263 163 147 146 174 211 199 161 145 155 156 155 165 181 196 206 213 214 214 218 222 224 226 229 230 230 233 238 240 240 238 236 236 239 240 242 244 245 246 247 248 249 251 252 254 253 249 246 244 242 240 237 233 231 230 231 232 232 231 230 227 224 220 216 213 210 208 208 209 210 210 209 207 207 208 209 208
198 191 173 182 193 188 202 205 195 129 160 166 169 185 194 192 182 165 186 197 184 179 186 192 197 201 207 215 222 226 226 229 232 233 233 236 240 242 242 244 243 241 240 239 239 241 243 246 248 248 249 250 250 251 252 249 245 243 241 239 236 233 233 233 234 235 234 232 230 227 223 218 214 212 211 210 210 210 211 212 211 209 209 209 210 211
219 183 144 146 212 245 267 210 162 124 183 182 181 183 189 193 194 186 197 211 208 196 193 193 197 196 194 204 215 220 222 227 230 231 232 234 235 234 235 237 237 238 238 236 235 236 238 242 246 249 251 252 252 253 253 250 247 245 242 240 237 236 237 237 238 239 236 233 229 225 222 217 214 212 211 210 211 212 213 214 214 213 212 211 211 213
280 178 159 153 171 204 233 212 163 160 195 192 191 189 188 195 201 205 207 211 211 214 213 205 201 200 198 204 211 211 212 214 215 218 221 221 220 220 222 226 230 234 238 238 236 236 236 238 242 247 251 254 254 254 253 249 247 245 242 239 238 238 239 240 241 240 237 233 229 224 220 217 215 214 213 211 211 212 213 215 216 216 215 214 214 214
199 176 175 182 171 185 223 216 161 174 194 196 197 198 192 197 205 211 214 216 218 223 221 212 206 203 205 213 219 215 210 207 207 208 209 209 211 214 217 223 228 233 238 240 241 241 240 240 241 242 245 248 249 251 250 247 245 244 241 240 239 239 240 241 241 240 237 233 229 225 221 218 217 216 215 213 212 212 213 214 215 216 218 219 220 220
134 155 178 184 179 208 258 233 149 176 209 210 208 206 201 200 207 213 218 222 224 224 223 219 217 213 212 217 220 216 211 208 207 207 207 209 213 217 222 226 229 232 236 238 241 244 245 245 243 241 243 247 249 251 251 249 247 246 244 243 243 242 242 242 240 238 236 232 228 225 222 220 219 218 217 216 214 213 214 215 215 217 219 221 223 225
132 163 182 156 178 218 236 193 166 168 212 217 211 210 206 203 208 214 218 223 227 228 228 226 225 223 221 219 217 217 216 214 213 213 214 217 223 227 231 233 233 233 233 232 232 234 234 235 239 243 249 253 255 257 257 255 252 249 246 245 245 245 244 243 241 238 234 231 228 226 223 222 220 219 218 217 216 214 214 214 215 217 219 221 223 224
177 179 172 165 200 222 212 168 168 175 190 196 199 203 205 207 212 216 218 223 227 229 231 232 231 229 227 222 218 219 220 220 221 222 223 228 235 239 238 234 228 224 224 224 225 226 230 237 245 252 257 259 259 261 261 260 258 255 251 249 248 247 246 245 242 239 236 232 229 227 225 224 222 220 219 218 217 217 216 215 215 216 218 220 222 223